Ellensburg, WA
on Tuesday, December 25, 2012

Tuesday
Previous Day Next Day
Daily Summary
 ActualAverage (KYKM)Record (KYKM)
Temperature
Mean Temperature °F 28°F  
Max Temperature 32°F 34°F 60°F (1972)
Min Temperature 21°F 21°F 3°F (2008)
Degree Days
Heating Degree Days 38 37  
Month to date heating degree days 906  
Since 1 July heating degree days 2439  
Cooling Degree Days 0 0  
Month to date cooling degree days 0  
Year to date cooling degree days 472  
Moisture
Dew Point 25°F   
Average Humidity 83    
Maximum Humidity 86    
Minimum Humidity 78    
Precipitation
Precipitation 0.01 in 0.05 in 0.38 in (1996)
Month to date precipitation 1.25  
Year to date precipitation 7.97  
Snow
Snow 0.00 in 0.30 in 4.40 in (1996)
Month to date snowfall 7.6  
Year to date snowfall 19.8  
Since 1 July snowfall 11.2  
Snow Depth in   
Wind
Wind Speed 2 mph   
Max Wind Speed 8 mph   
Max Gust Speed 110 mph   
Visibility 5 miles   
Events Snow   

Key: T is trace of precipitation, MM is missing value
Source: NWS Daily Summary
Time(PST)TemperatureDew PointHumidity Pressure Visibility Wind DirectionWind SpeedGust SpeedPrecipitationEvents Conditions
12:53 AM 21.9°F 16.0°F 78% 30.14 in 10.0 miles Calm Calm - N/A   Clear
1:53 AM 21.0°F 16.0°F 81% 30.12 in 10.0 miles Calm Calm - N/A   Clear
2:53 AM 21.9°F 18.0°F 85% 30.11 in 10.0 miles North 4.6 mph - N/A   Clear
3:53 AM 21.0°F 17.1°F 85% 30.08 in 10.0 miles West 3.5 mph - N/A   Clear
4:53 AM 23.0°F 18.0°F 81% 30.05 in 10.0 miles North 4.6 mph - N/A   Mostly Cloudy
5:17 AM 24.8°F 19.4°F 80% 29.99 in 10.0 miles Calm Calm - N/A   Overcast
5:53 AM 27.0°F 21.9°F 81% 30.03 in 10.0 miles East 3.5 mph - N/A   Overcast
6:20 AM 28.4°F 23.0°F 80% 29.97 in 10.0 miles Calm Calm - N/A   Overcast
6:36 AM 28.4°F 23.0°F 80% 29.96 in 10.0 miles Calm Calm - N/A   Overcast
6:53 AM 28.9°F 23.0°F 78% 30.01 in 10.0 miles Calm Calm - N/A   Overcast
7:03 AM 26.6°F 21.2°F 80% 29.95 in 10.0 miles Calm Calm - N/A   Overcast
7:51 AM 30.2°F 24.8°F 80% 29.93 in 2.0 miles East 6.9 mph - 0.00 in Snow Light Snow
7:53 AM 30.0°F 25.0°F 82% 29.99 in 1.8 miles East 6.9 mph - 0.00 in Snow Light Snow
8:53 AM 30.0°F 25.0°F 82% 29.98 in 1.5 miles ESE 6.9 mph - 0.00 in Snow Light Snow
9:10 AM 30.2°F 26.6°F 86% 29.92 in 1.0 miles ESE 8.1 mph - 0.00 in Snow Light Snow
9:27 AM 30.2°F 26.6°F 86% 29.92 in 0.8 miles SE 5.8 mph - 0.00 in Snow Light Snow
9:46 AM 30.2°F 26.6°F 86% 29.91 in 0.5 miles East 4.6 mph - 0.00 in Snow Snow
9:53 AM 30.9°F 26.1°F 82% 29.96 in 0.5 miles East 4.6 mph - 0.00 in Snow Snow
10:27 AM 30.2°F 26.6°F 86% 29.89 in 0.8 miles Calm Calm - 0.00 in Snow Light Snow
10:37 AM 30.2°F 26.6°F 86% 29.88 in 0.8 miles Calm Calm - 0.00 in Snow Light Snow
10:51 AM 30.2°F 26.6°F 86% 29.88 in 0.5 miles SSW 4.6 mph - 0.00 in Snow Snow
10:53 AM 30.9°F 26.1°F 82% 29.94 in 0.5 miles SSW 3.5 mph - 0.00 in Snow Snow
11:07 AM 30.2°F 26.6°F 86% 29.87 in 0.2 miles Calm Calm - 0.00 in Snow Heavy Snow
11:42 AM 32.0°F 26.6°F 80% 29.85 in 0.5 miles South 3.5 mph - 0.00 in Snow Snow
11:53 AM 32.0°F 27.0°F 82% 29.90 in 0.8 miles Calm Calm - 0.00 in Snow Light Snow
12:31 PM 32.0°F 26.6°F 80% 29.82 in 1.0 miles Calm Calm - 0.00 in Snow Light Snow
12:43 PM 32.0°F 26.6°F 80% 29.82 in 0.8 miles SE 3.5 mph - 0.00 in Snow Light Snow
12:53 PM 32.0°F 27.0°F 82% 29.88 in 1.0 miles SSE 4.6 mph - 0.00 in Snow Light Snow
1:09 PM 32.0°F 26.6°F 80% 29.82 in 1.2 miles South 3.5 mph - 0.00 in Snow Light Snow
1:15 PM 32.0°F 26.6°F 80% 29.81 in 0.8 miles Calm Calm - 0.00 in Snow Light Snow
1:36 PM 32.0°F 26.6°F 80% 29.81 in 1.0 miles Calm Calm - 0.00 in Snow Light Snow
1:53 PM 32.0°F 27.0°F 82% 29.86 in 1.0 miles South 3.5 mph - 0.00 in Snow Light Snow
2:00 PM 32.0°F 26.6°F 80% 29.80 in 1.0 miles South 3.5 mph - 0.00 in Snow Light Snow
2:21 PM 32.0°F 26.6°F 80% 29.80 in 1.5 miles Calm Calm - 0.00 in Snow Light Snow
2:47 PM 32.0°F 26.6°F 80% 29.80 in 1.0 miles South 3.5 mph - 0.01 in Snow Light Snow
2:53 PM 32.0°F 27.0°F 82% 29.86 in 1.0 miles Calm Calm - 0.01 in Snow Light Snow
3:08 PM 32.0°F 26.6°F 80% 29.80 in 0.8 miles Calm Calm - 0.00 in Snow Light Snow
3:28 PM 30.2°F 26.6°F 86% 29.80 in 0.8 miles Calm Calm - 0.00 in Snow Light Snow
3:38 PM 30.2°F 26.6°F 86% 29.80 in 0.8 miles Calm Calm - 0.00 in Snow Light Snow
3:42 PM 30.2°F 26.6°F 86% 29.79 in 1.2 miles Calm Calm - 0.00 in Snow Light Snow
3:53 PM 30.9°F 27.0°F 85% 29.86 in 1.0 miles Calm Calm - 0.00 in Snow Light Snow
4:01 PM 30.2°F 26.6°F 86% 29.79 in 0.8 miles Calm Calm - 0.00 in Snow Light Snow
4:07 PM 30.2°F 26.6°F 86% 29.79 in 1.0 miles Calm Calm - 0.00 in Snow Light Snow
4:10 PM 30.2°F 26.6°F 86% 29.80 in 1.2 miles Calm Calm - 0.00 in Snow Light Snow
4:21 PM 30.2°F 26.6°F 86% 29.80 in 3.0 miles Calm Calm - 0.00 in Snow Light Snow
4:53 PM 30.9°F 26.1°F 82% 29.86 in 10.0 miles Calm Calm - 0.00 in   Overcast
5:14 PM 30.2°F 26.6°F 86% 29.79 in 10.0 miles Calm Calm - N/A   Overcast
5:53 PM 30.9°F 26.1°F 82% 29.85 in 10.0 miles Calm Calm - N/A   Overcast
6:05 PM 30.2°F 26.6°F 86% 29.79 in 10.0 miles NNE 4.6 mph - N/A   Overcast
6:39 PM 30.2°F 26.6°F 86% 29.79 in 10.0 miles North 8.1 mph 110.5 mph N/A   Overcast
6:53 PM 30.9°F 26.1°F 82% 29.84 in 8.0 miles Calm Calm - 0.00 in Snow Light Snow
7:01 PM 30.2°F 24.8°F 80% 29.78 in 4.0 miles North 3.5 mph - 0.00 in Snow Light Snow
7:04 PM 30.2°F 24.8°F 80% 29.78 in 2.5 miles North 3.5 mph - 0.00 in Snow Light Snow
7:22 PM 30.2°F 26.6°F 86% 29.78 in 3.0 miles Calm Calm - 0.00 in Snow Light Snow
7:53 PM 30.0°F 25.0°F 82% 29.83 in 9.0 miles Calm Calm - 0.00 in   Overcast
8:53 PM 30.0°F 25.0°F 82% 29.83 in 10.0 miles Calm Calm - N/A   Overcast
9:15 PM 30.2°F 24.8°F 80% 29.78 in 9.0 miles Calm Calm - N/A   Overcast
9:25 PM 30.2°F 24.8°F 80% 29.78 in 10.0 miles Calm Calm - N/A   Overcast
9:45 PM 30.2°F 24.8°F 80% 29.79 in 10.0 miles Calm Calm - N/A   Overcast
9:53 PM 28.9°F 24.1°F 82% 29.84 in 10.0 miles North 3.5 mph - N/A   Overcast
10:53 PM 30.0°F 25.0°F 82% 29.83 in 10.0 miles Calm Calm - N/A   Overcast
11:08 PM 28.4°F 24.8°F 86% 29.78 in 10.0 miles SW 3.5 mph - N/A   Overcast
11:30 PM 30.2°F 24.8°F 80% 29.79 in 8.0 miles Calm Calm - N/A   Overcast
11:51 PM 28.4°F 24.8°F 86% 29.78 in 10.0 miles North 3.5 mph - N/A   Overcast
11:53 PM 30.0°F 25.0°F 82% 29.83 in 10.0 miles North 3.5 mph - N/A   Overcast
Moon Phase
Dec. 25 Dec. 28 Jan. 04 Jan. 11 Jan. 18
Sunrise:07:47 AM (PST) Moon Rise:02:32 PM (PST)12/25
Sunset:04:18 PM (PST) Moon Set:05:21 AM (PST)12/25

Copyright © 2014 The Weather Underground, Inc.